sat.trackr.live / text

‹ back to catalog

CSS (TIANHE)

NORAD 48274 · 2021-035A

PAYLOAD ACTIVE UNKNOWN

§ Identity

Operator
Country
PRC
Launch date
2021-04-29
Launch site
WSC
Launch vehicle
Mass (kg)
RCS (m²)

Purposes: station

External: N2YO · Heavens-Above · Gunter

§ Orbital elements

Epoch: 2026-05-25T03:02:10.928832Z

Period
92.32 min
Inclination
41.4679°
Eccentricity
0.0011060
Mean motion
15.59799573 rev/d
Perigee alt
380.8 km
Apogee alt
395.7 km
Semi-major
6,766.4 km
B*
1.7567e-4
RAAN
102.2354°
Arg perigee
276.8418°
Mean anomaly
83.1162°
Rev number
28,956

§ Raw data

CSS (TIANHE)1 48274U 21035A   26145.12651538  .00014225  00000+0  17567-3 0  99972 48274  41.4679 102.2354 0011060 276.8418  83.1162 15.59799573289560

JSON: /api/v1/satellites/48274 · /tle

For live sub-satellite position, see the globe view (requires WebGL).

§ Visibility from observer

Set your observer location to see the next 7 days of passes ≥ 10°. The values pass through the URL so the page stays shareable.

No JS? Fill the form by hand. The geolocation button needs JavaScript.

§ Radio — SatNOGS DB

ModeDescriptionDownlinkUplink
FMN 1A V/V crew voice NFM 145.985 MHz 145.850 MHz
FMN 1B U/U crew voice NFM 436.510 MHz 435.050 MHz
FM 2208.722 2.209 GHz
FMN 2A V/U FM repeater NFM 436.510 MHz 145.875 MHz
FMN 2B U/V FM repeater NFM 145.985 MHz 435.075 MHz
AFSK 3A V/V digipeater AFSK-FM 1200 145.825 MHz 145.825 MHz
AFSK 3B U/U digipeater AFSK-FM 1200 437.550 MHz 437.550 MHz
SSTV 4A V/V imaging SSTV-FM 145.985 MHz 145.850 MHz
SSTV 4B U/U imaging SSTV-FM 436.510 MHz 435.050 MHz
FM S TLM 1 2.232 GHz
FM S TLM 2 2.251 GHz
FM S-band telemetry 2.224 GHz

12 transmitters · refreshed weekly from db.satnogs.org